Weather in Pudost'

Russia / Saint-Petersburg and Leningrad Oblast     59°36′55″N   30°02′30″E
temp.,
°C
wind,
m/s
gust,
m/s
humid.,
%
clouds,
%
prec.,
mm/h
press.,
hPa
HPBL,
m
11 may, tue
tue1100:00+12s41481100 0.0 1023444
03:00+10s41485100 0.0 1023401
06:00+10s41286100 0.0 1023341
09:00+15s511640 0.0 1024579
12:00+19s58485 0.0 10241154
15:00+21s58420 0.0 10231345
18:00+20s46480 0.0 10231168
21:00+14sse39750 0.0 1023165
12 may, wed
wed1200:00+11sse26850 0.0 1024102
03:00+10sse27860 0.0 1024140
06:00+10sse27800 0.0 1025161
09:00+16sse36550 0.0 1024445
12:00+20sse46470 0.0 10241022
15:00+22sse46450 0.0 10221581
18:00+22sse35530 0.0 10211449
21:00+16ene117272 0.0 102011
13 may, thu
thu1300:00+15e278315 0.0 1019130
03:00+13e311915 0.0 1018257
06:00+13ese4119117 0.0 1017590
09:00+15se59595 0.0 1017973
12:00+18se59441 0.0 10161692
15:00+20se69375 0.0 10152578
18:00+19sse484615 0.0 10141796
21:00+14s266797 0.0 1013167
14 may, fri
fri1400:00+10s2277100 0.0 101425
03:00+10sse1176100 0.0 101314
06:00+9se248136 0.0 1013121
09:00+15sse37575 0.0 1012889
12:00+18sse464649 0.0 10121582
15:00+16s265877 0.0 1012628
18:00+17s375878 0.0 1011347
21:00+14se227464 0.0 101015
15 may, sat
sat1500:00+11ese128482 0.0 101012
03:00+13ne2277100 0.0 100936
06:00+11ese25895 0.0 1009133
09:00+17se2468100 0.0 1008549
12:00+20se236338 0.8 10071228
15:00+19sse237246 4.5 1007925
18:00+19sw227020 0.8 1006899
21:00+15w229198 1.8 100516